sat.trackr.live / text

‹ back to catalog

STARLINK-37421

NORAD 68821 · 2026-089V

PAYLOAD ACTIVE UNKNOWN

§ Identity

Operator
Country
US
Launch date
2026-04-23
Launch site
AFWTR
Launch vehicle
Mass (kg)
RCS (m²)

Purposes: comms

External: N2YO · Heavens-Above · Gunter

§ Orbital elements

Epoch: 2026-09-19T23:51:18.761760Z

Period
93.91 min
Inclination
97.2852°
Eccentricity
0.0001920
Mean motion
15.33456893 rev/d
Perigee alt
464.2 km
Apogee alt
466.8 km
Semi-major
6,843.6 km
B*
3.9478e-4
RAAN
108.7972°
Arg perigee
88.2294°
Mean anomaly
271.9169°
Rev number
2,318

§ Raw data

STARLINK-374211 68821U 26089V   26262.99396715  .00012697  00000+0  39478-3 0  99952 68821  97.2852 108.7972 0001920  88.2294 271.9169 15.33456893 23185

JSON: /api/v1/satellites/68821 · /tle

For live sub-satellite position, see the globe view (requires WebGL).

§ Visibility from observer

Set your observer location to see the next 7 days of passes ≥ 10°. The values pass through the URL so the page stays shareable.

No JS? Fill the form by hand. The geolocation button needs JavaScript.